Simultaneous Nadir Overpasses (SNOs) Predictions

Prediction of SNOs between AQUA and METOP-A Satellite Orbit:

Table of predicted SNOs for the next 14.0 days since TLE Epoch: 2/28/2014
Index Date (AQUA) Time (AQUA) Lat,Lon (AQUA) SZA (AQUA ) Date (METOP-A) Time (METOP-A) Lat,Lon (METOP-A) SZA (METOP-A ) Distance(km) Time Diff (sec)
1 03/01/2014 22:37:58 73.89,-165.33 81.33 03/01/2014 22:36:53 73.88,-165.33 81.34 0.62 65
2 03/01/2014 23:27:25 -73.97, 2.13 98.59 03/01/2014 23:27:33 -73.97, 2.22 98.60 2.73 8
3 03/02/2014 00:16:57 74.20, 169.24 81.65 03/02/2014 00:18:08 74.21, 170.13 81.60 27.06 71
4 03/04/2014 18:12:07 73.91, -98.89 80.26 03/04/2014 18:11:13 73.92, -98.84 80.28 1.83 54
5 03/04/2014 19:01:34 -73.99, 68.57 99.67 03/04/2014 19:01:54 -73.96, 68.59 99.69 2.97 20
6 03/04/2014 19:51:14 74.63,-125.32 81.03 03/04/2014 19:52:20 74.63,-122.37 80.90 87.08 66
7 03/07/2014 13:46:14 73.91, -32.43 79.17 03/07/2014 13:45:33 73.94, -32.39 79.21 2.92 41
8 03/07/2014 14:35:41 -73.99, 135.04 100.76 03/07/2014 14:36:14 -73.98, 135.06 100.77 0.74 33
9 03/10/2014 09:20:19 73.96, 33.96 78.12 03/10/2014 09:19:52 73.94, 34.04 78.11 3.06 27
10 03/10/2014 10:09:45 -73.98,-158.46 101.87 03/10/2014 10:10:33 -74.00,-158.50 101.86 2.22 48
11 03/13/2014 04:04:50 -73.69, -66.60 103.27 03/13/2014 04:03:39 -73.63, -67.63 103.28 33.06 71
12 03/13/2014 04:54:22 73.94, 100.48 76.99 03/13/2014 04:54:12 73.94, 100.45 76.99 1.18 10
13 03/13/2014 05:43:49 -74.02, -92.04 102.95 03/13/2014 05:44:53 -74.00, -92.09 102.98 2.37 64




NCC Satellite Simultaneous Nadir Overpasses (SNOs) Prediction Service
